This is the latest recevied weather packets stored in our database for station/object K3RUP-1. If no packets are shown the sender has not sent any weather packets the latest 10 day(s).
| Time | Temp. | Humidity | Pressure | Rain* | Wind** | Luminosity | Snow |
|---|---|---|---|---|---|---|---|
| 1777767185 | 13.33° C | 50% | 1011.8 hPa | 0 mm | - | 0 W/m² | - |
| 1777766883 | 13.33° C | 48% | 1011.6 hPa | 0 mm | - | 0 W/m² | - |
| 1777766580 | 13.33° C | 46% | 1011.4 hPa | 0 mm | - | 0 W/m² | - |
| 1777766277 | 13.33° C | 47% | 1011.5 hPa | 0 mm | - | 0 W/m² | - |
| 1777765975 | 13.33° C | 47% | 1011.6 hPa | 0 mm | - | 1 W/m² | - |
| 1777765671 | 13.33° C | 48% | 1011.4 hPa | 0 mm | - | 3 W/m² | - |
| 1777765368 | 13.89° C | 45% | 1011.3 hPa | 0 mm | - | 3 W/m² | - |
| 1777765064 | 13.89° C | 47% | 1011.5 hPa | 0 mm | - | 5 W/m² | - |
| 1777764761 | 13.89° C | 45% | 1011.3 hPa | 0 mm | - | 6 W/m² | - |
| 1777764457 | 13.89° C | 49% | 1011.3 hPa | 0 mm | - | 8 W/m² | - |
| 1777764154 | 13.89° C | 47% | 1011.1 hPa | 0 mm | - | 9 W/m² | - |
| 1777763851 | 13.89° C | 49% | 1011.2 hPa | 0 mm | - | 11 W/m² | - |
| 1777763549 | 13.89° C | 47% | 1011.3 hPa | 0 mm | - | 15 W/m² | - |
| 1777763247 | 14.44° C | 43% | 1011.4 hPa | 0 mm | - | 17 W/m² | - |
| 1777762945 | 14.44° C | 43% | 1011.3 hPa | 0 mm | - | 19 W/m² | - |
| 1777762641 | 14.44° C | 44% | 1011.1 hPa | 0 mm | - | 25 W/m² | - |
| 1777762338 | 14.44° C | 43% | 1011.1 hPa | 0 mm | - | 37 W/m² | - |
| 1777762034 | 15° C | 45% | 1011.1 hPa | 0 mm | - | 26 W/m² | - |
| 1777761731 | 15° C | 41% | 1011.1 hPa | 0 mm | - | 49 W/m² | - |
| 1777761429 | 15° C | 45% | 1010.9 hPa | 0 mm | - | 59 W/m² | - |
| 1777761127 | 15° C | 45% | 1011.1 hPa | 0 mm | - | 56 W/m² | - |
| 1777760824 | 15° C | 44% | 1011.1 hPa | 0 mm | - | 56 W/m² | - |
| 1777760521 | 15° C | 42% | 1010.9 hPa | 0 mm | - | 61 W/m² | - |
| 1777760216 | 15.56° C | 40% | 1010.9 hPa | 0 mm | - | 49 W/m² | - |
| 1777759914 | 15.56° C | 44% | 1011.2 hPa | 0 mm | - | 42 W/m² | - |
* Rain latest hour (hover to see other rain measurements)
** Current wind speed in m/s (hover to see current wind gust speed)